Regional Weather Roundup
Issued by NWS

Home | Current Version | Previous Version | Text Only | Print | Product List | Glossary Off
Versions: 1 2 3 4 5 6 7 8 9 10 11 12 13 14 15 16 17 18 19 20 21 22 23 24 25 26 27 28 29 30 31 32 33 34 35 36 37 38 39 40 41 42 43 44 45 46 47 48 49 50

000
ASUS43 KFSD 141210
RWRSD

WEATHER ROUNDUP FOR SOUTH DAKOTA
NATIONAL WEATHER SERVICE SIOUX FALLS SD
600 AM CST THU DEC 14 2017

NOTE: "FAIR" INDICATES FEW OR NO CLOUDS BELOW 12,000 FEET WITH NO
SIGNIFICANT WEATHER AND/OR OBSTRUCTIONS TO VISIBILITY.


SDZ001>005-009-010-012>017-141300-
NORTHWEST AND NORTH CENTRAL SOUTH DAKOTA

CITY           SKY/WX    TMP DP  RH WIND       PRES   REMARKS
BUFFALO          N/A     32  28  85 NW35G40   30.01R WCI  17
FAITH            N/A     32  32 100 NW25G33   30.02R WCI  19
MOBRIDGE       LGT SNOW  32  28  85 NW7       29.96S FOG     WCI  26
$$

SDZ012>016-024>037-041>051-057-063-072>074-141300-
SOUTHWEST AND SOUTH CENTRAL SOUTH DAKOTA

CITY           SKY/WX    TMP DP  RH WIND       PRES   REMARKS
RAPID CTY ARPT CLOUDY    37  25  61 N22G35    30.06S
PIERRE         LGT RAIN  36  34  92 NW17      30.00R
CUSTER         CLOUDY    29  19  66 NW13G24   30.02R WCI  19
ELLSWORTH AFB  LGT RAIN  37  25  61 NW38G49   30.03F
PHILIP         LGT RAIN  36  33  89 NW13      30.04S
PINE RIDGE     CLOUDY    33  29  85 W7        30.06F WCI  27
SPEARFISH      LGT RAIN  32  23  69 NW26G37   30.12R WCI  18
WINNER         LGT RAIN  38  32  79 NW15      30.01S
$$

SDZ004>011-016>023-039-040-141300-
NORTHEAST SOUTH DAKOTA

CITY           SKY/WX    TMP DP  RH WIND       PRES   REMARKS
ABERDEEN       CLOUDY    25  25 100 S3        29.98F
WATERTOWN      CLOUDY    27  25  92 NW5       29.95S WCI  22
BROOKINGS      CLOUDY    27  26  96 CALM      29.98R
SISSETON         N/A     21  18  88 CALM      29.99R
$$

SDZ017-020-022-023-036>040-048>070-141300-
SOUTHEAST SOUTH DAKOTA

CITY           SKY/WX    TMP DP  RH WIND       PRES   REMARKS
SIOUX FALLS    CLOUDY    28  26  92 E5        29.99S WCI  23
HURON          CLOUDY    26  23  88 NW7       30.00S WCI  18
CHAMBERLAIN    CLOUDY    30  28  92 CALM      30.01S
MITCHELL       CLOUDY    29  24  82 NW9       30.00F WCI  20
YANKTON        CLOUDY    33  26  75 NW7       30.01S WCI  27
$$

ABBREVIATIONS USED IN REMARKS
   TC - TEMPERATURE IN CELSIUS
  WCI - WIND CHILL INDEX
   HX - HEAT INDEX
  VSB - VISIBILITY




USA.gov is the U.S. government's official web portal to all federal, state and local government web resources and services.